Location: Lansingburgh
(42.7845°N, 73.6696°W)
Time: 18:02:48
(UTC+00:00)

Cosmos 1939 Rocket - Pass Details

Date: 24 January 2020
Orbit: 534 x 583 km, 97.4° (Epoch: 22 February)

Event Time Altitude Azimuth Distance (km) Brightness Sun altitude
Rises 23:12:07 0° 152° (SSE) 2,688 6.2 -13.8°
Reaches altitude 10° 23:14:15 10° 146° (SSE) 1,808 5.2 -14.2°
Maximum altitude 23:18:00 46° 73° (ENE) 742 3.0 -14.9°
Drops below altitude 10° 23:21:50 10° 360° (N) 1,848 5.4 -15.6°
Sets 23:24:03 0° 354° (N) 2,757 6.3 -16.0°
